| time (UTC) | temp C | wind direction | speed KPH | gust KPH | rain 1hr cm | rain 24hr cm | rain mn cm | humidity % | barometer mb |
| 20260506124939 | 24 | 116 | 0.0 | 1.6 | 0.00 | 0.00 | 0.00 | 100 | 1008.2 |
| 20260506124440 | 24 | 117 | 0.0 | 1.6 | 0.00 | 0.00 | 0.00 | 100 | 1008.2 |
| 20260506123939 | 24 | 126 | 0.0 | 0.0 | 0.00 | 0.00 | 0.00 | 100 | 1008.3 |
| 20260506123440 | 24 | 126 | 0.0 | 0.0 | 0.00 | 0.00 | 0.00 | 100 | 1008.3 |
| 20260506122939 | 24 | 126 | 0.0 | 0.0 | 0.00 | 0.00 | 0.00 | 100 | 1008.3 |
| 20260506122439 | 24 | 124 | 0.0 | 0.0 | 0.00 | 0.00 | 0.00 | 100 | 1008.2 |
| 20260506121938 | 24 | 124 | 0.0 | 1.6 | 0.00 | 0.00 | 0.00 | 100 | 1008.1 |
| 20260506121438 | 24 | 131 | 0.0 | 0.0 | 0.00 | 0.00 | 0.00 | 100 | 1008.1 |
| 20260506120934 | 24 | 124 | 1.6 | 4.8 | 0.00 | 0.00 | 0.00 | 100 | 1008.0 |
| 20260506120422 | 24 | 124 | 1.6 | 6.4 | 0.00 | 0.00 | 0.00 | 100 | 1008.0 |
| 20260506115909 | 24 | 126 | 1.6 | 6.4 | 0.00 | 0.00 | 0.00 | 100 | 1007.9 |
| 20260506115358 | 24 | 124 | 1.6 | 6.4 | 0.00 | 0.00 | 0.00 | 100 | 1008.0 |
| 20260506114851 | 24 | 121 | 1.6 | 8.0 | 0.00 | 0.00 | 0.00 | 100 | 1007.9 |
| 20260506114351 | 24 | 118 | 1.6 | 8.0 | 0.00 | 0.00 | 0.00 | 100 | 1007.9 |
| 20260506113851 | 24 | 134 | 1.6 | 8.0 | 0.00 | 0.00 | 0.00 | 100 | 1007.8 |
| 20260506113350 | 24 | 135 | 3.2 | 8.0 | 0.00 | 0.00 | 0.00 | 100 | 1007.9 |
| 20260506112849 | 24 | 129 | 4.8 | 8.0 | 0.00 | 0.00 | 0.00 | 100 | 1007.8 |
| 20260506112350 | 24 | 140 | 4.8 | 11.3 | 0.00 | 0.00 | 0.00 | 100 | 1007.9 |
| 20260506112121 | 24 | 140 | 8.0 | 12.9 | 0.00 | 0.00 | 0.00 | 100 | 1007.9 |
| 20260506111348 | 24 | 146 | 6.4 | 12.9 | 0.00 | 0.00 | 0.00 | 100 | 1007.8 |
| 20260506110850 | 24 | 142 | 4.8 | 12.9 | 0.00 | 0.00 | 0.00 | 100 | 1007.8 |
| 20260506110344 | 24 | 132 | 4.8 | 9.7 | 0.00 | 0.00 | 0.00 | 100 | 1007.9 |
| 20260506105832 | 24 | 142 | 6.4 | 9.7 | 0.00 | 0.00 | 0.00 | 100 | 1007.8 |
| 20260506105322 | 24 | 148 | 6.4 | 12.9 | 0.00 | 0.00 | 0.00 | 100 | 1007.8 |
| 20260506104811 | 24 | 134 | 4.8 | 12.9 | 0.00 | 0.00 | 0.00 | 100 | 1007.9 |
| 20260506104308 | 24 | 144 | 3.2 | 8.0 | 0.00 | 0.00 | 0.00 | 100 | 1007.9 |
| 20260506103802 | 24 | 142 | 3.2 | 8.0 | 0.00 | 0.00 | 0.00 | 100 | 1007.9 |
| 20260506103523 | 24 | 146 | 3.2 | 8.0 | 0.00 | 0.00 | 0.00 | 100 | 1007.8 |
| 20260506102747 | 24 | 136 | 1.6 | 6.4 | 0.00 | 0.00 | 0.00 | 100 | 1007.7 |
| 20260506102240 | 24 | 130 | 0.0 | 4.8 | 0.00 | 0.00 | 0.00 | 100 | 1007.6 |
| 20260506101736 | 24 | 140 | 0.0 | 3.2 | 0.00 | 0.00 | 0.00 | 100 | 1007.7 |
| 20260506101228 | 24 | 132 | 0.0 | 3.2 | 0.00 | 0.00 | 0.00 | 100 | 1007.7 |
| 20260506100722 | 24 | 143 | 0.0 | 0.0 | 0.00 | 0.00 | 0.00 | 100 | 1007.6 |
| 20260506100219 | 24 | 143 | 0.0 | 1.6 | 0.00 | 0.00 | 0.00 | 100 | 1007.7 |
| 20260506095950 | 24 | 144 | 0.0 | 1.6 | 0.00 | 0.00 | 0.00 | 100 | 1007.6 |
| 20260506095219 | 24 | 121 | 0.0 | 0.0 | 0.00 | 0.00 | 0.00 | 100 | 1007.5 |
| 20260506094720 | 24 | 125 | 0.0 | 0.0 | 0.00 | 0.00 | 0.00 | 100 | 1007.4 |
| 20260506094448 | 24 | 118 | 0.0 | 0.0 | 0.00 | 0.00 | 0.00 | 100 | 1007.5 |
| 20260506093717 | 24 | 115 | 0.0 | 0.0 | 0.00 | 0.00 | 0.00 | 100 | 1007.6 |
| 20260506093218 | 24 | 115 | 0.0 | 0.0 | 0.00 | 0.00 | 0.00 | 100 | 1007.6 |
| 20260506092715 | 24 | 124 | 0.0 | 0.0 | 0.00 | 0.00 | 0.00 | 100 | 1007.6 |
| 20260506091711 | 24 | 123 | 0.0 | 1.6 | 0.00 | 0.00 | 0.00 | 100 | 1007.5 |
| 20260506091208 | 24 | 122 | 0.0 | 0.0 | 0.00 | 0.00 | 0.00 | 100 | 1007.5 |
| 20260506090709 | 24 | 122 | 0.0 | 6.4 | 0.00 | 0.00 | 0.00 | 100 | 1007.5 |
| 20260506090209 | 24 | 128 | 0.0 | 6.4 | 0.00 | 0.00 | 0.00 | 100 | 1007.4 |
| 20260506085707 | 24 | 145 | 1.6 | 6.4 | 0.00 | 0.00 | 0.00 | 100 | 1007.5 |
| 20260506085204 | 24 | 144 | 1.6 | 9.7 | 0.00 | 0.00 | 0.00 | 100 | 1007.5 |
| 20260506084704 | 24 | 134 | 3.2 | 9.7 | 0.00 | 0.00 | 0.00 | 100 | 1007.5 |
| 20260506084201 | 24 | 156 | 4.8 | 9.7 | 0.00 | 0.00 | 0.00 | 100 | 1007.5 |
| 20260506083701 | 25 | 127 | 4.8 | 9.7 | 0.00 | 0.00 | 0.00 | 100 | 1007.5 |
| 20260506083200 | 25 | 119 | 3.2 | 8.0 | 0.00 | 0.00 | 0.00 | 100 | 1007.5 |
| 20260506082651 | 25 | 124 | 3.2 | 6.4 | 0.00 | 0.00 | 0.00 | 100 | 1007.5 |
| 20260506082144 | 25 | 129 | 3.2 | 6.4 | 0.00 | 0.00 | 0.00 | 100 | 1007.6 |
| 20260506081631 | 25 | 139 | 3.2 | 8.0 | 0.00 | 0.00 | 0.00 | 100 | 1007.6 |
| 20260506081125 | 25 | 128 | 6.4 | 9.7 | 0.00 | 0.00 | 0.00 | 100 | 1007.5 |
| 20260506080854 | 25 | 142 | 6.4 | 9.7 | 0.00 | 0.00 | 0.00 | 100 | 1007.5 |
| 20260506080117 | 25 | 137 | 6.4 | 9.7 | 0.00 | 0.00 | 0.00 | 100 | 1007.6 |
| 20260506073042 | 25 | 129 | 4.8 | 8.0 | 0.00 | 0.00 | 0.00 | 100 | 1008.0 |
| 20260506072530 | 25 | 130 | 4.8 | 11.3 | 0.00 | 0.00 | 0.00 | 100 | 1008.2 |
| 20260506072025 | 25 | 134 | 6.4 | 12.9 | 0.00 | 0.00 | 0.00 | 100 | 1008.2 |
| 20260506071523 | 25 | 148 | 6.4 | 12.9 | 0.00 | 0.00 | 0.00 | 100 | 1008.2 |
| 20260506071017 | 25 | 149 | 4.8 | 9.7 | 0.00 | 0.00 | 0.00 | 100 | 1008.3 |
| 20260506070511 | 25 | 149 | 3.2 | 8.0 | 0.00 | 0.00 | 0.00 | 100 | 1008.4 |
| 20260506061917 | 25 | 168 | 1.6 | 8.0 | 0.00 | 0.00 | 0.00 | 100 | 1008.8 |
| 20260506061411 | 25 | 165 | 4.8 | 9.7 | 0.00 | 0.00 | 0.00 | 100 | 1008.8 |
| 20260506060905 | 25 | 144 | 4.8 | 11.3 | 0.00 | 0.00 | 0.00 | 100 | 1008.8 |
| 20260506060355 | 25 | 182 | 3.2 | 17.7 | 0.00 | 0.00 | 0.00 | 100 | 1008.8 |
| 20260506051254 | 25 | 153 | 11.3 | 19.3 | 0.00 | 0.00 | 0.00 | 100 | 1008.3 |
| 20260506050747 | 25 | 148 | 11.3 | 19.3 | 0.00 | 0.00 | 0.00 | 100 | 1008.3 |
| 20260506050247 | 25 | 143 | 11.3 | 17.7 | 0.00 | 0.00 | 0.00 | 100 | 1008.4 |
| 20260506044728 | 25 | 144 | 12.9 | 22.5 | 0.00 | 0.00 | 0.00 | 100 | 1008.3 |
| 20260506044229 | 25 | 140 | 14.5 | 25.7 | 0.00 | 0.00 | 0.00 | 100 | 1008.2 |
| 20260506043728 | 25 | 165 | 14.5 | 25.7 | 0.00 | 0.00 | 0.00 | 100 | 1008.2 |
| 20260506043500 | 25 | 140 | 14.5 | 29.0 | 0.00 | 0.00 | 0.00 | 100 | 1008.2 |
| 20260506042728 | 25 | 162 | 16.1 | 29.0 | 0.00 | 0.00 | 0.00 | 100 | 1008.2 |
| 20260506042229 | 25 | 146 | 16.1 | 25.7 | 0.00 | 0.00 | 0.00 | 100 | 1008.2 |
| 20260506041728 | 25 | 143 | 16.1 | 25.7 | 0.00 | 0.00 | 0.00 | 100 | 1008.1 |
| 20260506041228 | 25 | 143 | 14.5 | 24.1 | 0.00 | 0.00 | 0.00 | 100 | 1008.1 |
| 20260506040728 | 25 | 147 | 16.1 | 24.1 | 0.00 | 0.00 | 0.00 | 100 | 1008.1 |
| 20260506040228 | 25 | 139 | 14.5 | 24.1 | 0.00 | 0.00 | 0.00 | 100 | 1008.1 |
| 20260506035729 | 25 | 136 | 12.9 | 19.3 | 0.00 | 0.00 | 0.00 | 100 | 1008.2 |
| 20260506035228 | 25 | 150 | 12.9 | 20.9 | 0.00 | 0.00 | 0.00 | 100 | 1008.1 |
| 20260506034728 | 25 | 141 | 12.9 | 20.9 | 0.00 | 0.00 | 0.00 | 100 | 1008.1 |
| 20260506034228 | 25 | 145 | 14.5 | 24.1 | 0.00 | 0.00 | 0.00 | 100 | 1008.1 |
| 20260506033728 | 25 | 137 | 14.5 | 24.1 | 0.00 | 0.00 | 0.00 | 100 | 1008.1 |
| 20260506033228 | 25 | 151 | 12.9 | 25.7 | 0.00 | 0.00 | 0.00 | 100 | 1008.1 |
| 20260506032729 | 25 | 138 | 12.9 | 25.7 | 0.00 | 0.00 | 0.00 | 100 | 1008.1 |
| 20260506032227 | 25 | 138 | 14.5 | 25.7 | 0.00 | 0.00 | 0.00 | 100 | 1008.0 |
| 20260506031954 | 25 | 158 | 12.9 | 25.7 | 0.00 | 0.00 | 0.00 | 100 | 1008.1 |
| 20260506031210 | 25 | 140 | 14.5 | 24.1 | 0.00 | 0.00 | 0.00 | 100 | 1008.0 |
| 20260506030709 | 25 | 154 | 16.1 | 24.1 | 0.00 | 0.00 | 0.00 | 100 | 1008.0 |
| 20260506030203 | 25 | 147 | 14.5 | 24.1 | 0.00 | 0.00 | 0.00 | 100 | 1007.9 |
| 20260506025658 | 25 | 142 | 12.9 | 24.1 | 0.00 | 0.00 | 0.00 | 100 | 1007.8 |
| 20260506025152 | 25 | 133 | 11.3 | 19.3 | 0.00 | 0.00 | 0.00 | 100 | 1007.7 |
| 20260506024653 | 25 | 153 | 11.3 | 22.5 | 0.00 | 0.00 | 0.00 | 100 | 1007.6 |
| 20260506024422 | 25 | 134 | 12.9 | 22.5 | 0.00 | 0.00 | 0.00 | 100 | 1007.5 |
| 20260506023651 | 25 | 145 | 14.5 | 20.9 | 0.00 | 0.00 | 0.00 | 100 | 1007.5 |
| 20260506023148 | 25 | 137 | 12.9 | 24.1 | 0.00 | 0.00 | 0.00 | 100 | 1007.4 |
| 20260506022649 | 25 | 144 | 12.9 | 24.1 | 0.00 | 0.00 | 0.00 | 100 | 1007.3 |
| 20260506022147 | 25 | 132 | 14.5 | 24.1 | 0.00 | 0.00 | 0.00 | 100 | 1007.2 |
| 20260506021651 | 25 | 134 | 14.5 | 24.1 | 0.00 | 0.00 | 0.00 | 100 | 1007.1 |
| 20260506021146 | 25 | 130 | 14.5 | 22.5 | 0.00 | 0.00 | 0.00 | 100 | 1007.1 |
| 20260506020648 | 25 | 125 | 12.9 | 20.9 | 0.00 | 0.00 | 0.00 | 100 | 1007.1 |
| 20260506020143 | 25 | 144 | 12.9 | 20.9 | 0.00 | 0.00 | 0.00 | 100 | 1007.0 |
| 20260506015646 | 25 | 155 | 14.5 | 20.9 | 0.00 | 0.00 | 0.00 | 100 | 1007.0 |
| 20260506015144 | 25 | 146 | 14.5 | 25.7 | 0.00 | 0.00 | 0.00 | 100 | 1006.9 |
| 20260506014645 | 25 | 156 | 14.5 | 25.7 | 0.00 | 0.00 | 0.00 | 100 | 1006.9 |
| 20260506014140 | 25 | 139 | 16.1 | 27.4 | 0.00 | 0.00 | 0.00 | 100 | 1006.8 |
| 20260506013639 | 25 | 142 | 16.1 | 27.4 | 0.00 | 0.00 | 0.00 | 100 | 1006.8 |
| 20260506013140 | 25 | 130 | 16.1 | 25.7 | 0.00 | 0.00 | 0.00 | 100 | 1006.6 |
| 20260506012640 | 25 | 133 | 16.1 | 25.7 | 0.00 | 0.00 | 0.00 | 100 | 1006.5 |
| 20260506012141 | 25 | 138 | 16.1 | 24.1 | 0.00 | 0.00 | 0.00 | 100 | 1006.5 |
| 20260506011640 | 25 | 153 | 14.5 | 24.1 | 0.00 | 0.00 | 0.00 | 100 | 1006.5 |
| 20260506011140 | 25 | 138 | 14.5 | 24.1 | 0.00 | 0.00 | 0.00 | 100 | 1006.4 |
| 20260506010640 | 25 | 142 | 14.5 | 24.1 | 0.00 | 0.00 | 0.00 | 100 | 1006.4 |
| 20260506010141 | 25 | 145 | 14.5 | 24.1 | 0.00 | 0.00 | 0.00 | 100 | 1006.3 |
| 20260506005907 | 25 | 137 | 16.1 | 25.7 | 0.00 | 0.00 | 0.00 | 100 | 1006.2 |
| 20260506005124 | 25 | 138 | 14.5 | 25.7 | 0.00 | 0.00 | 0.00 | 100 | 1006.2 |
| 20260506004855 | 25 | 124 | 14.5 | 24.1 | 0.00 | 0.00 | 0.00 | 100 | 1006.2 |
| 20260506004125 | 26 | 158 | 14.5 | 24.1 | 0.00 | 0.00 | 0.00 | 100 | 1006.1 |
| 20260506003624 | 26 | 130 | 17.7 | 25.7 | 0.00 | 0.00 | 0.00 | 100 | 1006.0 |
| 20260506003124 | 26 | 150 | 17.7 | 25.7 | 0.00 | 0.00 | 0.00 | 100 | 1006.1 |
| 20260506002624 | 26 | 134 | 17.7 | 29.0 | 0.00 | 0.00 | 0.00 | 100 | 1006.1 |
| 20260506002401 | 26 | 138 | 17.7 | 29.0 | 0.00 | 0.00 | 0.00 | 100 | 1006.1 |
| 20260506001624 | 26 | 157 | 17.7 | 29.0 | 0.00 | 0.00 | 0.00 | 100 | 1006.1 |
| 20260506001125 | 26 | 157 | 19.3 | 30.6 | 0.00 | 0.00 | 0.00 | 100 | 1006.1 |
| 20260506000619 | 26 | 142 | 19.3 | 30.6 | 0.00 | 0.00 | 0.00 | 100 | 1006.1 |
| 20260506000107 | 26 | 154 | 17.7 | 33.8 | 0.00 | 0.00 | 0.00 | 100 | 1006.1 |
| 20260505235826 | 26 | 142 | 19.3 | 33.8 | 0.00 | 0.00 | 0.00 | 100 | 1006.0 |
| 20260505235043 | 26 | 144 | 20.9 | 30.6 | 0.00 | 0.00 | 0.00 | 100 | 1006.0 |
| 20260505234531 | 26 | 147 | 19.3 | 32.2 | 0.00 | 0.00 | 0.00 | 100 | 1006.1 |
| 20260505234251 | 26 | 136 | 19.3 | 32.2 | 0.00 | 0.00 | 0.00 | 100 | 1006.1 |
| 20260505233511 | 26 | 169 | 17.7 | 32.2 | 0.00 | 0.00 | 0.00 | 100 | 1006.2 |
| 20260505233000 | 26 | 136 | 19.3 | 32.2 | 0.00 | 0.00 | 0.00 | 100 | 1006.2 |
| 20260505232725 | 26 | 135 | 19.3 | 30.6 | 0.00 | 0.00 | 0.00 | 100 | 1006.3 |
| 20260505231944 | 26 | 149 | 19.3 | 32.2 | 0.00 | 0.00 | 0.00 | 100 | 1006.2 |
| 20260505231437 | 26 | 157 | 20.9 | 32.2 | 0.00 | 0.00 | 0.00 | 100 | 1006.1 |
| 20260505230929 | 26 | 126 | 19.3 | 32.2 | 0.00 | 0.00 | 0.00 | 100 | 1006.1 |
| 20260505230421 | 26 | 152 | 16.1 | 32.2 | 0.00 | 0.00 | 0.00 | 100 | 1006.2 |
| 20260505225913 | 26 | 125 | 14.5 | 27.4 | 0.00 | 0.00 | 0.00 | 100 | 1006.2 |
| 20260505225359 | 26 | 153 | 17.7 | 30.6 | 0.00 | 0.00 | 0.00 | 100 | 1006.3 |
| 20260505224859 | 26 | 154 | 17.7 | 33.8 | 0.00 | 0.00 | 0.00 | 100 | 1006.4 |
| 20260505224353 | 26 | 151 | 17.7 | 33.8 | 0.00 | 0.00 | 0.00 | 100 | 1006.3 |
| 20260505223846 | 26 | 143 | 17.7 | 33.8 | 0.00 | 0.00 | 0.00 | 100 | 1006.3 |
| 20260505223336 | 26 | 147 | 19.3 | 33.8 | 0.00 | 0.00 | 0.00 | 100 | 1006.4 |
| 20260505222831 | 26 | 145 | 17.7 | 32.2 | 0.00 | 0.00 | 0.00 | 100 | 1006.4 |
| 20260505222329 | 26 | 155 | 16.1 | 27.4 | 0.00 | 0.00 | 0.00 | 100 | 1006.4 |
| 20260505221824 | 26 | 166 | 17.7 | 29.0 | 0.00 | 0.00 | 0.00 | 100 | 1006.4 |
| 20260505221316 | 26 | 157 | 17.7 | 29.0 | 0.00 | 0.00 | 0.00 | 100 | 1006.4 |
| 20260505220811 | 26 | 159 | 19.3 | 33.8 | 0.00 | 0.00 | 0.00 | 100 | 1006.5 |
| 20260505220305 | 26 | 121 | 20.9 | 33.8 | 0.00 | 0.00 | 0.00 | 100 | 1006.5 |
| 20260505215754 | 26 | 149 | 19.3 | 32.2 | 0.00 | 0.00 | 0.00 | 100 | 1006.6 |
| 20260505215248 | 26 | 136 | 17.7 | 27.4 | 0.00 | 0.00 | 0.00 | 100 | 1006.7 |
| 20260505214742 | 26 | 140 | 17.7 | 30.6 | 0.00 | 0.00 | 0.00 | 100 | 1006.8 |
| 20260505214241 | 26 | 182 | 19.3 | 30.6 | 0.00 | 0.00 | 0.00 | 100 | 1006.9 |
| 20260505213734 | 26 | 131 | 19.3 | 30.6 | 0.00 | 0.00 | 0.00 | 100 | 1007.0 |
| 20260505213229 | 26 | 150 | 19.3 | 30.6 | 0.00 | 0.00 | 0.00 | 100 | 1007.1 |
| 20260505212953 | 26 | 145 | 17.7 | 30.6 | 0.00 | 0.00 | 0.00 | 100 | 1007.1 |
| 20260505212211 | 26 | 123 | 19.3 | 30.6 | 0.00 | 0.00 | 0.00 | 100 | 1007.1 |
| 20260505211711 | 26 | 113 | 20.9 | 30.6 | 0.00 | 0.00 | 0.00 | 100 | 1007.2 |
| 20260505211432 | 26 | 165 | 19.3 | 30.6 | 0.00 | 0.00 | 0.00 | 100 | 1007.2 |
| 20260505210148 | 27 | 149 | 20.9 | 30.6 | 0.00 | 0.00 | 0.00 | 100 | 1007.2 |
| 20260505205647 | 27 | 139 | 19.3 | 30.6 | 0.00 | 0.00 | 0.00 | 100 | 1007.3 |
| 20260505205141 | 27 | 136 | 19.3 | 30.6 | 0.00 | 0.00 | 0.00 | 100 | 1007.3 |
| 20260505204636 | 27 | 138 | 20.9 | 32.2 | 0.00 | 0.00 | 0.00 | 100 | 1007.4 |
| 20260505204127 | 27 | 142 | 17.7 | 32.2 | 0.00 | 0.00 | 0.00 | 100 | 1007.5 |
| 20260505203619 | 27 | 138 | 17.7 | 29.0 | 0.00 | 0.00 | 0.00 | 100 | 1007.6 |
| 20260505203112 | 27 | 155 | 16.1 | 29.0 | 0.00 | 0.00 | 0.00 | 100 | 1007.6 |
| 20260505202607 | 27 | 136 | 17.7 | 30.6 | 0.00 | 0.00 | 0.00 | 100 | 1007.6 |
| 20260505202100 | 27 | 128 | 16.1 | 30.6 | 0.00 | 0.00 | 0.00 | 100 | 1007.6 |
| 20260505201549 | 27 | 140 | 14.5 | 27.4 | 0.00 | 0.00 | 0.00 | 100 | 1007.7 |
| 20260505201048 | 27 | 138 | 14.5 | 27.4 | 0.00 | 0.00 | 0.00 | 100 | 1007.8 |
| 20260505200542 | 27 | 141 | 14.5 | 25.7 | 0.00 | 0.00 | 0.00 | 100 | 1007.9 |
| 20260505200032 | 27 | 136 | 16.1 | 25.7 | 0.00 | 0.00 | 0.00 | 100 | 1007.9 |
| 20260505195526 | 27 | 145 | 12.9 | 24.1 | 0.00 | 0.00 | 0.00 | 100 | 1008.0 |
| 20260505195255 | 27 | 151 | 12.9 | 33.8 | 0.00 | 0.00 | 0.00 | 100 | 1008.1 |
| 20260505194512 | 27 | 154 | 14.5 | 33.8 | 0.00 | 0.00 | 0.00 | 100 | 1008.2 |
| 20260505194238 | 27 | 171 | 16.1 | 33.8 | 0.00 | 0.00 | 0.00 | 100 | 1008.1 |
| 20260505193503 | 27 | 161 | 16.1 | 33.8 | 0.00 | 0.00 | 0.00 | 100 | 1008.2 |
| 20260505193233 | 27 | 153 | 14.5 | 30.6 | 0.00 | 0.00 | 0.00 | 100 | 1008.2 |
| 20260505192454 | 27 | 170 | 14.5 | 30.6 | 0.00 | 0.00 | 0.00 | 100 | 1008.2 |
| 20260505191944 | 27 | 143 | 12.9 | 24.1 | 0.00 | 0.00 | 0.00 | 100 | 1008.3 |
| 20260505191438 | 27 | 161 | 14.5 | 29.0 | 0.00 | 0.00 | 0.00 | 100 | 1008.2 |
| 20260505190932 | 27 | 167 | 17.7 | 30.6 | 0.00 | 0.00 | 0.00 | 100 | 1008.2 |
| 20260505190427 | 27 | 157 | 14.5 | 30.6 | 0.00 | 0.00 | 0.00 | 100 | 1008.4 |
| 20260505185920 | 27 | 178 | 12.9 | 29.0 | 0.00 | 0.00 | 0.00 | 100 | 1008.4 |
| 20260505185415 | 27 | 153 | 14.5 | 29.0 | 0.00 | 0.00 | 0.00 | 100 | 1008.4 |
| 20260505185136 | 27 | 176 | 16.1 | 24.1 | 0.00 | 0.00 | 0.00 | 100 | 1008.4 |
| 20260505184358 | 27 | 172 | 16.1 | 25.7 | 0.00 | 0.00 | 0.00 | 100 | 1008.5 |
| 20260505184127 | 27 | 149 | 14.5 | 27.4 | 0.00 | 0.00 | 0.00 | 100 | 1008.5 |
| 20260505183622 | 27 | 152 | 16.1 | 27.4 | 0.00 | 0.00 | 0.00 | 100 | 1008.5 |
| 20260505182844 | 27 | 146 | 14.5 | 25.7 | 0.00 | 0.00 | 0.00 | 100 | 1008.6 |
| 20260505182339 | 27 | 149 | 14.5 | 24.1 | 0.00 | 0.00 | 0.00 | 100 | 1008.6 |
| 20260505181833 | 27 | 178 | 16.1 | 27.4 | 0.00 | 0.00 | 0.00 | 100 | 1008.6 |
| 20260505181320 | 27 | 154 | 14.5 | 29.0 | 0.00 | 0.00 | 0.00 | 100 | 1008.5 |
| 20260505180815 | 27 | 164 | 14.5 | 29.0 | 0.00 | 0.00 | 0.00 | 100 | 1008.5 |
| 20260505180314 | 27 | 178 | 17.7 | 29.0 | 0.00 | 0.00 | 0.00 | 100 | 1008.6 |
| 20260505175808 | 27 | 183 | 14.5 | 29.0 | 0.00 | 0.00 | 0.00 | 100 | 1008.6 |
| 20260505175257 | 27 | 165 | 14.5 | 27.4 | 0.00 | 0.00 | 0.00 | 100 | 1008.7 |
| 20260505174757 | 27 | 180 | 14.5 | 27.4 | 0.00 | 0.00 | 0.00 | 100 | 1008.7 |
| 20260505174251 | 27 | 161 | 16.1 | 29.0 | 0.00 | 0.00 | 0.00 | 100 | 1008.8 |
| 20260505173745 | 27 | 158 | 16.1 | 29.0 | 0.00 | 0.00 | 0.00 | 100 | 1008.8 |
| 20260505173234 | 27 | 160 | 14.5 | 27.4 | 0.00 | 0.00 | 0.00 | 100 | 1008.7 |
| 20260505172732 | 27 | 138 | 12.9 | 27.4 | 0.00 | 0.00 | 0.00 | 100 | 1008.8 |
| 20260505172226 | 27 | 159 | 12.9 | 25.7 | 0.00 | 0.00 | 0.00 | 100 | 1008.9 |
| 20260505171720 | 27 | 145 | 12.9 | 25.7 | 0.00 | 0.00 | 0.00 | 100 | 1008.9 |
| 20260505171215 | 26 | 167 | 14.5 | 27.4 | 0.00 | 0.00 | 0.00 | 100 | 1009.0 |
| 20260505170708 | 27 | 171 | 14.5 | 27.4 | 0.00 | 0.00 | 0.00 | 100 | 1009.0 |
| 20260505170202 | 26 | 176 | 12.9 | 25.7 | 0.00 | 0.00 | 0.00 | 100 | 1009.0 |
| 20260505165925 | 26 | 182 | 11.3 | 20.9 | 0.00 | 0.00 | 0.00 | 100 | 1009.1 |
| 20260505165150 | 26 | 165 | 12.9 | 22.5 | 0.00 | 0.00 | 0.00 | 100 | 1009.1 |
| 20260505164644 | 26 | 184 | 12.9 | 27.4 | 0.00 | 0.00 | 0.00 | 100 | 1009.1 |
| 20260505164139 | 26 | 151 | 12.9 | 27.4 | 0.00 | 0.00 | 0.00 | 100 | 1009.1 |
| 20260505163628 | 26 | 159 | 14.5 | 27.4 | 0.00 | 0.00 | 0.00 | 100 | 1009.0 |
| 20260505163126 | 26 | 159 | 14.5 | 27.4 | 0.00 | 0.00 | 0.00 | 100 | 1009.1 |
| 20260505162620 | 26 | 184 | 14.5 | 9.7 | 0.00 | 0.00 | 0.00 | 100 | 1009.1 |
| 20260505161347 | 26 | 161 | 11.3 | 24.1 | 0.00 | 0.00 | 0.00 | 100 | 1009.0 |
| 20260505160848 | 26 | 167 | 12.9 | 29.0 | 0.00 | 0.00 | 0.00 | 100 | 1009.0 |
| 20260505160348 | 26 | 165 | 14.5 | 29.0 | 0.00 | 0.00 | 0.00 | 100 | 1008.9 |
| 20260505153344 | 26 | 172 | 14.5 | 30.6 | 0.00 | 0.00 | 0.00 | 100 | 1008.9 |
| 20260505152844 | 26 | 178 | 14.5 | 30.6 | 0.00 | 0.00 | 0.00 | 100 | 1008.8 |
| 20260505152343 | 26 | 151 | 14.5 | 27.4 | 0.00 | 0.00 | 0.00 | 100 | 1008.8 |
| 20260505151848 | 26 | 170 | 14.5 | 27.4 | 0.00 | 0.00 | 0.00 | 100 | 1008.8 |
| 20260505151628 | 25 | 177 | 14.5 | 24.1 | 0.00 | 0.00 | 0.00 | 100 | 1008.8 |
| 20260505150847 | 25 | 176 | 14.5 | 24.1 | 0.00 | 0.00 | 0.00 | 100 | 1008.8 |
| 20260505150341 | 25 | 156 | 12.9 | 24.1 | 0.00 | 0.00 | 0.00 | 100 | 1008.8 |
| 20260505150119 | 25 | 160 | 12.9 | 25.7 | 0.00 | 0.00 | 0.00 | 100 | 1008.8 |
| 20260505140234 | 24 | 181 | 9.7 | 17.7 | 0.00 | 0.00 | 0.00 | 100 | 1008.7 |
| 20260505130208 | 23 | 167 | 8.0 | 16.1 | 0.00 | 0.00 | 0.00 | 100 | 1008.5 |